User: anonymous   Login
Location: Unspecified
(0.0000°N, 0.0000°E)
Time: 10:21:22
(UTC+00:00)
Language:

PAYLOAD C - Orbit

View from above orbital plane
View from above orbital plane
View from above satellite
View from above satellite

Ground track
Ground track

The orbit data is extracted from the following two-line orbital elements,

1 27057U 01058C   17080.86639667 -.00000011 +00000-0 -12071-3 0  9990
2 27057 082.5446 214.2090 0001829 122.9526 237.1746 12.61541127701375
Epoch (UTC): 21 March 2017 20:47:36
Eccentricity: 0.0001829
inclination: 82.5446°
perigee height: 1415 km
apogee height: 1418 km
right ascension of ascending node: 214.2090°
argument of perigee: 122.9526°
revolutions per day: 12.61541127
mean anomaly at epoch: 237.1746°
orbit number at epoch: 70137

The dashed part of the orbit path shows where the satellite is in the earth's shadow,  

DLR